Back to catalog

COSMOS 1823 DEB

AliveLEO
NORAD 26982·DEBRIS·🇷🇺 Russia

Launched Feb 20, 1987 from Plesetsk Cosmodrome

Loading…

Next Passes (next 24 hours)

TLE

FreshSource: Space-Track

Epoch: Sep 13, 2026, 11:24 UTC

1 26982U 87020DU  26256.47546344  .00000048  00000-0  47490-3 0  9991
2 26982  73.5980 266.7950 0026147 106.0675  48.1635 12.42699193204011

Track COSMOS 1823 DEB in real time with AllMySat

Download on the App Store